カタログに戻る

METEOR 2-5 DEB

LostPO
NORAD 38277·DEBRIS·🇷🇺 Russia

打ち上げ Oct 31, 1979 から Plesetsk Cosmodrome

Loading…

次のパス (今後24時間)

TLE

古いSource: Space-Track

元期: Jun 25, 2024, 12:19 UTC

1 38277U 79095BX  24177.51338141  .00018188  00000-0  49589-2 0  9997
2 38277  81.2000  96.3913 0012804  75.9025  47.4948 14.47237947668503

AllMySatでMETEOR 2-5 DEBをリアルタイム追跡

Download on the App Store